Gary, IN

9:36 PM CDT on August 17, 2017 (GMT -0500)
Gary / Chicago

Weather History for KGYY - March, 2014

Change the Weather History Date:

Friday, March 28, 2014

  Actual Average Record
Temperature  
Mean Temperature 45 °F -  
Max Temperature 55 °F 52 °F 78 °F (2004)
Min Temperature 35 °F 35 °F 20 °F (1975)
Degree Days  
Heating Degree Days 20    
Moisture  
Dew Point 36 °F    
Average Humidity 77    
Maximum Humidity 93    
Minimum Humidity 65    
Precipitation  
Precipitation 0.02 in - - ()
Sea Level Pressure  
Sea Level Pressure 29.86 in    
Wind  
Wind Speed 16 mph (NNE)    
Max Wind Speed 24 mph    
Max Gust Speed 45 mph    
Visibility 9 miles    
Events Rain    
Averages and records for this station are not official NWS values.
T = Trace of Precipitation, MM = Missing Value Source: NWS Daily Summary

Daily Weather History Graph

Daily Weather History Graph

Search for Another Location

Airport or City:

Trip Planner

Search our weather history database for the weather conditions in past years. The results will help you decide how hot, cold, wet, or windy it might be!

Date:

Astronomy

Mar. 28, 2014 Rise Set
Actual Time 6:39 AM CDT 7:10 PM CDT
Civil Twilight 6:11 AM CDT 7:38 PM CDT
Nautical Twilight 5:38 AM CDT 8:11 PM CDT
Astronomical Twilight 5:04 AM CDT 8:45 PM CDT
Moon 5:11 AM CDT (3/28) 5:05 PM CDT (3/28)
Length of Visible Light 13h 27m
Length of Day
12h 31m
Waning Crescent, 6% of the Moon is Illuminated
Mar 28
Waning Crescent
Mar 30
New
Apr 7
First Quarter
Apr 15
Full
Apr 22
Last Quarter

Hourly Weather History & Observations

Time (CDT) Temp. Windchill Dew Point Humidity Pressure Visibility Wind Dir Wind Speed Gust Speed Precip Events Conditions
12:15 AM 54.9 °F - 46.6 °F 74% 29.47 in 10.0 mi South 20.7 mph 32.2 mph N/A   Mostly Cloudy
12:35 AM 55.0 °F - 47.3 °F 75% 29.47 in 10.0 mi SSW 16.1 mph 31.1 mph N/A   Overcast
12:55 AM 55.0 °F - 47.7 °F 76% 29.47 in 10.0 mi SSW 19.6 mph 31.1 mph N/A   Overcast
1:15 AM 55.4 °F - 48.2 °F 77% 29.47 in 10.0 mi South 19.6 mph 32.2 mph N/A   Overcast
1:35 AM 55.4 °F - 48.6 °F 78% 29.47 in 10.0 mi SSW 12.7 mph 29.9 mph N/A   Overcast
1:55 AM 55.6 °F - 49.1 °F 79% 29.46 in 10.0 mi South 17.3 mph 29.9 mph N/A   Overcast
2:15 AM 55.8 °F - 49.1 °F 78% 29.47 in 10.0 mi SSW 12.7 mph 28.8 mph N/A   Overcast
2:35 AM 55.8 °F - 48.2 °F 76% 29.49 in 10.0 mi SW 13.8 mph 23.0 mph N/A   Overcast
2:55 AM 52.0 °F - 41.4 °F 67% 29.51 in 10.0 mi SW 21.9 mph 35.7 mph N/A   Overcast
3:15 AM 48.0 °F - 39.7 °F 73% 29.53 in 10.0 mi WSW 19.6 mph 34.5 mph N/A   Overcast
3:35 AM 47.1 °F - 39.6 °F 75% 29.53 in 10.0 mi SW 13.8 mph 29.9 mph N/A   Overcast
3:55 AM 46.8 °F - 39.2 °F 75% 29.54 in 10.0 mi WSW 19.6 mph 31.1 mph N/A   Overcast
4:15 AM 46.6 °F - 39.2 °F 75% 29.55 in 10.0 mi SW 19.6 mph 28.8 mph N/A   Overcast
4:45 AM 46.4 °F 38.1 °F 39.2 °F 76% 29.57 in 7.0 mi WSW 24.2 mph 44.9 mph N/A   Overcast
5:45 AM 42.8 °F 35.8 °F 39.2 °F 87% 29.61 in 3.0 mi WSW 13.8 mph - N/A   Overcast
6:45 AM 42.8 °F 35.8 °F 41.0 °F 93% 29.68 in 4.0 mi West 13.8 mph - N/A   Overcast
7:23 AM 37.4 °F 28.9 °F 35.6 °F 93% 29.76 in 3.0 mi North 13.8 mph 39.1 mph N/A Rain Light Rain
7:45 AM 37.4 °F 26.1 °F 35.6 °F 93% 29.80 in 4.0 mi North 24.2 mph 39.1 mph N/A Rain Light Rain
8:45 AM 39.2 °F 32.0 °F 35.6 °F 87% 29.87 in 10.0 mi NNW 11.5 mph - N/A   Light Drizzle
9:45 AM 41.0 °F 32.5 °F 35.6 °F 81% 29.92 in 10.0 mi NNW 17.3 mph - N/A   Overcast
10:45 AM 41.0 °F 33.5 °F 33.8 °F 76% 29.96 in 10.0 mi NNW 13.8 mph 27.6 mph N/A   Overcast
11:45 AM 41.0 °F 34.3 °F 32.0 °F 70% 30.00 in 10.0 mi NNW 11.5 mph 26.5 mph N/A   Overcast
12:45 PM 41.0 °F 33.5 °F 32.0 °F 70% 30.04 in 10.0 mi NNE 13.8 mph 26.5 mph N/A   Overcast
1:45 PM 39.2 °F 33.6 °F 30.2 °F 70% 30.09 in 10.0 mi NNE 8.1 mph - N/A   Overcast
2:45 PM 39.2 °F 33.0 °F 30.2 °F 70% 30.10 in 10.0 mi NNE 9.2 mph - N/A   Overcast
3:45 PM 39.2 °F 35.0 °F 28.4 °F 65% 30.12 in 10.0 mi NNE 5.8 mph - N/A   Overcast
4:45 PM 39.2 °F 33.0 °F 28.4 °F 65% 30.14 in 10.0 mi NNE 9.2 mph - N/A   Unknown
5:45 PM 37.4 °F 29.8 °F 30.2 °F 75% 30.13 in 10.0 mi NNE 11.5 mph - N/A   Overcast
6:45 PM 37.4 °F 30.8 °F 28.4 °F 70% 30.16 in 10.0 mi NNE 9.2 mph - N/A   Overcast
7:45 PM 35.6 °F 27.5 °F 30.2 °F 81% 30.16 in 10.0 mi NNE 11.5 mph - N/A   Overcast
8:45 PM 35.6 °F 28.0 °F 28.4 °F 75% 30.16 in 10.0 mi NNE 10.4 mph - N/A   Overcast
9:15 PM 35.6 °F 26.6 °F 29.3 °F 78% 30.17 in 10.0 mi ENE 13.8 mph - N/A   Overcast
9:35 PM 35.6 °F 28.6 °F 29.3 °F 78% 30.17 in 10.0 mi ENE 9.2 mph - N/A   Overcast
9:45 PM 35.6 °F 30.7 °F 28.4 °F 75% 30.17 in 10.0 mi NNE 5.8 mph - N/A   Overcast
9:55 PM 35.4 °F 27.8 °F 29.1 °F 78% 30.17 in 10.0 mi ENE 10.4 mph 16.1 mph N/A   Overcast
10:15 PM 35.2 °F 26.6 °F 29.1 °F 78% 30.17 in 10.0 mi East 12.7 mph 18.4 mph N/A   Overcast
10:35 PM 35.2 °F 27.1 °F 28.4 °F 76% 30.17 in 10.0 mi ENE 11.5 mph 17.3 mph N/A   Overcast
10:55 PM 35.2 °F 26.6 °F 28.6 °F 77% 30.18 in 10.0 mi ENE 12.7 mph 17.3 mph N/A   Overcast
11:15 PM 35.6 °F 28.6 °F 28.6 °F 76% 30.17 in 10.0 mi ENE 9.2 mph - N/A   Overcast
11:35 PM 35.2 °F 28.8 °F 28.4 °F 76% 30.18 in 10.0 mi ENE 8.1 mph - N/A   Overcast
11:55 PM 35.2 °F 28.8 °F 28.2 °F 76% 30.19 in 10.0 mi ENE 8.1 mph - N/A   Overcast